Showing default

QIANFAN-63, 62793

Orbit data source: Space-Track

QIANFAN-63, 62793 is a Chinese payload satellite in LEO that was launched on Thu, 23 Jan 2025 UTC via a CHANG ZHENG 6A launch vehicle from the Taiyaun Space Center, China (TSC). Payload-class satellites include a variety of spacecraft equipped with specific instruments for various scientific and technological missions. These include communications satellites like Starlink; space stations such as the ISS; scientific satellites like the Hubble; Earth observation satellites from companies like Planet Labs, Umbra, and HawkEye 360; GPS; miniature CubeSats for education and research; and military/defense satellites.

Loading next visibility...
Identifier
62793, 2025-016J
Orbit
LEO
Country
Flag of CNCN / PRC
Related business
Manufacturer
SECM
Mission
Operational Commercial Communications
Bus & Motor
QIANFAN, Unknown motor
Mass
267 kg wet, ~267 kg dry
Launch date (UTC)
2025-01-23 (2 years ago)
Launch vehicle
CHANG ZHENG 6A
Launch site
Taiyaun Space Center, China (TSC)
Object type
Payload
Rocket body
Debris
Shape & HBR
Box + 1 Pan, 5.0 m
Radar Cross Section
13.200 m², Large (>1 m²)

Expand to show TLE details & history
Last TLE update: 9 hours ago

TLE from 9 hours ago
0 QIANFAN-63
1 62793U 25016J   26257.57801176  .00000024  00000-0  19205-4 0  9995
2 62793  88.9669  74.4225 0014280 272.1123  87.8393 13.51022740 84513
Epoch: 2026-09-14T13:52Z
TLE epoch observation values (Epoch: 2026-09-14T13:52:20.216Z)
Latitude
0.00001°
Longitude
-127.21803°
Altitude
1,071.065 km
Speed
7.317 km/s
True Right ascension
04h 57m 41s
True Declination
0° 00' 00"
Sunlit
Object was in daylight at epoch
Visualization orbit readout
Latitude
Unknown
Longitude
Unknown
Altitude
Unknown
Speed
Unknown
Apparent Right ascension
Unknown
Apparent Declination
Unknown
Sunlit
N/A
Visualization observer readout
Local Sidereal Time
14:57:57
Azimuth
Unknown
Elevation
Unknown
Doppler factor
Unknown
Orbital elements
Apogee altitude
1,076.179 km
Perigee altitude
1,054.92 km
Semi-major axis
7,443.686 km
Eccentricity
0.00143
Inclination
88.9669°
RAAN
74.4225°
Arg. of periapsis
272.1123°
True anomaly
88.00283°
Mean anomaly
87.8393°
Eccentric anomaly
87.92106°
Mean motion
3.37957 °/min
Orbital period
106.52 mins
BSTAR
0.000019205
Loading maneuver chart data...
Computing Atmospheric mass density...
Loading historical data...
Loading historical data...
Loading historical data...
Loading historical data...
Loading historical data...
Loading historical data...
Loading historical data...

Documentation

Showing up to 5 results
|